sat.trackr.live / text

‹ back to catalog

STARLINK-6213

NORAD 56891 · 2023-083R

PAYLOAD ACTIVE UNKNOWN

§ Identity

Operator
Country
US
Launch date
2023-06-12
Launch site
AFETR
Launch vehicle
Mass (kg)
RCS (m²)

Purposes: comms

External: N2YO · Heavens-Above · Gunter

§ Orbital elements

Epoch: 2026-09-20T14:37:41.190528Z

Period
94.27 min
Inclination
43.0023°
Eccentricity
0.0000635
Mean motion
15.27474122 rev/d
Perigee alt
482.9 km
Apogee alt
483.8 km
Semi-major
6,861.5 km
B*
7.5907e-4
RAAN
64.1485°
Arg perigee
298.1621°
Mean anomaly
61.9166°
Rev number
18,144

§ Raw data

STARLINK-62131 56891U 23083R   26263.60950452  .00020617  00000+0  75907-3 0  99912 56891  43.0023  64.1485 0000635 298.1621  61.9166 15.27474122181446

JSON: /api/v1/satellites/56891 · /tle

For live sub-satellite position, see the globe view (requires WebGL).

§ Visibility from observer

Set your observer location to see the next 7 days of passes ≥ 10°. The values pass through the URL so the page stays shareable.

No JS? Fill the form by hand. The geolocation button needs JavaScript.